Location: Unspecified
(0.0000°N, 0.0000°E)
Time: 12:49:28
(UTC+00:00)

Vanguard 2 Rocket - Pass Details

Date: 14 October 2022
Orbit: 555 x 3321 km, 32.9° (Epoch: 07 December)

Event Time Altitude Azimuth Distance (km) Brightness Sun altitude
Rises 17:55:46 0° 260° (W) 6,274 15.0 -2.4°
Reaches altitude 10° 17:59:59 10° 268° (W) 5,570 12.9 -3.5°
Maximum altitude 18:16:20 40° 331° (NNW) 4,268 10.5 -7.5°
Drops below altitude 10° 18:34:11 10° 34° (NE) 5,971 10.6 -11.9°
Sets 18:39:02 0° 42° (NE) 6,738 10.9 -13.1°
